Total_Precipitation_Accumulation
0.15 0.21 0.28 0.30 0.25 0.20 0.17 0.21 0.33 0.29 0.30 0.34 0.39 0.36 0.38 0.40 0.34 0.28 0.24 0.22 0.23 0.26 0.30 0.34 0.31 0.28 0.27 0.24 0.24 0.31 0.36 0.44 0.54 0.48 0.43 0.42 0.39 0.33 0.31 0.34 0.37 0.50 0.57 0.61
0.13 0.15 0.20 0.23 0.24 0.17 0.12 0.11 0.14 0.23 0.36 0.35 0.35 0.38 0.34 0.32 0.29 0.24 0.22 0.20 0.21 0.25 0.26 0.26 0.22 0.17 0.13 0.13 0.17 0.24 0.31 0.36 0.44 0.44 0.37 0.32 0.30 0.27 0.25 0.29 0.35 0.42 0.44 0.49
0.18 0.16 0.23 0.27 0.23 0.17 0.11 0.09 0.10 0.25 0.43 0.33 0.31 0.33 0.31 0.30 0.27 0.21 0.16 0.14 0.14 0.15 0.17 0.14 0.13 0.10 0.10 0.11 0.13 0.21 0.31 0.39 0.46 0.50 0.51 0.39 0.28 0.27 0.29 0.35 0.41 0.45 0.44 0.44
0.26 0.31 0.45 0.30 0.18 0.17 0.18 0.15 0.16 0.20 0.25 0.26 0.27 0.24 0.20 0.17 0.17 0.17 0.18 0.16 0.15 0.13 0.12 0.13 0.13 0.14 0.15 0.15 0.15 0.22 0.32 0.38 0.42 0.47 0.49 0.48 0.44 0.41 0.44 0.53 0.58 0.59 0.52 0.50
0.35 0.41 0.35 0.29 0.24 0.25 0.30 0.29 0.27 0.31 0.25 0.23 0.24 0.19 0.21 0.16 0.17 0.16 0.19 0.20 0.19 0.18 0.17 0.18 0.19 0.23 0.26 0.26 0.29 0.34 0.40 0.49 0.50 0.53 0.56 0.54 0.53 0.57 0.62 0.66 0.66 0.65 0.60 0.57
0.46 0.53 0.51 0.44 0.38 0.34 0.36 0.53 0.41 0.40 0.39 0.35 0.33 0.39 0.36 0.23 0.16 0.17 0.18 0.20 0.20 0.18 0.20 0.26 0.27 0.33 0.37 0.43 0.46 0.52 0.60 0.67 0.67 0.71 0.76 0.73 0.77 0.81 0.80 0.80 0.72 0.68 0.64 0.66
0.61 0.64 0.59 0.48 0.45 0.40 0.65 0.76 0.45 0.41 0.44 0.45 0.44 0.46 0.34 0.24 0.19 0.21 0.17 0.18 0.20 0.25 0.26 0.31 0.36 0.43 0.52 0.57 0.58 0.63 0.66 0.76 0.85 0.92 1.03 1.10 1.16 1.09 1.03 1.01 0.97 0.88 0.79 0.79
0.85 0.90 0.79 0.51 0.50 0.68 0.80 0.61 0.57 0.50 0.47 0.45 0.41 0.42 0.36 0.29 0.26 0.20 0.23 0.25 0.26 0.30 0.31 0.35 0.40 0.50 0.60 0.65 0.72 0.81 0.87 0.99 1.07 1.18 1.19 1.23 1.51 1.54 1.56 1.48 1.29 1.15 1.07 0.97
0.85 0.89 0.69 0.57 0.67 0.67 0.67 0.71 0.67 0.58 0.46 0.45 0.42 0.38 0.34 0.31 0.27 0.21 0.22 0.27 0.29 0.34 0.37 0.44 0.52 0.70 0.85 0.83 0.90 1.01 1.09 1.16 1.21 1.27 1.35 1.45 1.60 1.64 1.66 1.62 1.45 1.31 1.26 1.20
0.82 0.87 0.76 0.62 0.59 0.64 0.63 0.60 0.65 0.59 0.56 0.58 0.51 0.39 0.34 0.31 0.27 0.26 0.26 0.29 0.32 0.40 0.49 0.62 0.72 0.86 1.02 0.99 1.05 1.15 1.18 1.20 1.23 1.30 1.36 1.43 1.60 1.60 1.55 1.48 1.45 1.42 1.41 1.35
0.93 0.87 0.78 0.71 0.71 0.80 0.77 0.68 0.70 0.64 0.57 0.61 0.53 0.44 0.38 0.34 0.34 0.34 0.38 0.41 0.40 0.48 0.62 0.79 0.92 1.01 1.06 1.09 1.17 1.27 1.27 1.28 1.34 1.39 1.44 1.48 1.54 1.61 1.54 1.45 1.37 1.39 1.37 1.35
0.97 0.89 0.95 0.93 0.81 0.85 0.88 0.73 0.73 0.74 0.67 0.56 0.51 0.49 0.45 0.41 0.38 0.37 0.41 0.43 0.46 0.52 0.65 0.81 0.96 1.09 1.16 1.25 1.34 1.42 1.42 1.34 1.38 1.43 1.48 1.52 1.53 1.41 1.26 1.15 1.03 1.01 1.04 1.07
0.72 0.73 0.80 0.77 0.75 0.85 0.97 0.84 0.66 0.63 0.61 0.57 0.49 0.46 0.44 0.40 0.38 0.38 0.38 0.40 0.47 0.56 0.65 0.75 0.86 1.03 1.21 1.41 1.52 1.55 1.56 1.54 1.51 1.54 1.56 1.52 1.49 1.44 1.34 1.15 0.97 0.84 0.76 0.77
0.55 0.55 0.62 0.64 0.74 0.75 0.81 0.80 0.63 0.54 0.48 0.46 0.46 0.46 0.44 0.38 0.36 0.34 0.36 0.39 0.44 0.54 0.67 0.74 0.84 0.96 1.11 1.31 1.46 1.54 1.53 1.51 1.48 1.52 1.52 1.45 1.41 1.40 1.42 1.32 1.20 1.02 0.81 0.74
0.52 0.54 0.64 0.66 0.65 0.65 0.67 0.67 0.64 0.55 0.45 0.41 0.41 0.45 0.49 0.45 0.41 0.39 0.36 0.38 0.44 0.51 0.61 0.73 0.86 0.92 1.00 1.10 1.20 1.30 1.36 1.38 1.37 1.35 1.37 1.41 1.41 1.40 1.42 1.43 1.36 1.20 0.98 0.87
0.62 0.65 0.67 0.64 0.59 0.53 0.54 0.57 0.60 0.55 0.46 0.46 0.47 0.43 0.43 0.48 0.48 0.46 0.43 0.45 0.54 0.61 0.69 0.83 0.89 0.95 1.10 1.19 1.25 1.29 1.34 1.37 1.39 1.33 1.21 1.19 1.21 1.24 1.22 1.27 1.28 1.19 1.05 0.90
0.73 0.78 0.77 0.70 0.59 0.57 0.61 0.64 0.63 0.56 0.49 0.49 0.52 0.49 0.43 0.42 0.45 0.46 0.46 0.45 0.51 0.58 0.69 0.83 0.85 0.90 1.05 1.22 1.34 1.36 1.28 1.22 1.22 1.21 1.14 1.06 1.10 1.17 1.19 1.22 1.17 1.08 0.96 0.80
0.67 0.69 0.69 0.67 0.62 0.59 0.59 0.55 0.54 0.52 0.49 0.46 0.46 0.47 0.47 0.46 0.46 0.48 0.50 0.51 0.53 0.54 0.57 0.65 0.75 0.84 0.94 1.08 1.21 1.26 1.24 1.18 1.11 1.08 1.05 0.99 0.97 1.03 1.07 1.06 0.97 0.89 0.81 0.69
0.55 0.53 0.52 0.53 0.56 0.58 0.56 0.51 0.49 0.49 0.48 0.46 0.48 0.50 0.48 0.46 0.47 0.49 0.51 0.57 0.68 0.74 0.67 0.64 0.74 0.76 0.84 0.97 1.10 1.11 1.15 1.17 1.08 0.93 0.91 0.91 0.85 0.87 0.81 0.77 0.72 0.69 0.64 0.59
0.52 0.51 0.49 0.57 0.65 0.71 0.70 0.61 0.57 0.56 0.53 0.51 0.52 0.52 0.51 0.49 0.50 0.55 0.59 0.66 0.76 0.84 0.81 0.75 0.68 0.64 0.73 0.90 1.01 0.95 0.93 0.98 0.95 0.83 0.81 0.85 0.79 0.74 0.63 0.60 0.57 0.57 0.57 0.54
0.58 0.59 0.58 0.62 0.67 0.69 0.68 0.64 0.61 0.59 0.53 0.49 0.50 0.51 0.51 0.49 0.48 0.58 0.73 0.79 0.73 0.77 0.77 0.76 0.69 0.65 0.66 0.83 0.90 0.90 0.86 0.85 0.86 0.80 0.76 0.75 0.73 0.67 0.57 0.56 0.54 0.52 0.48 0.47
0.57 0.59 0.59 0.59 0.58 0.56 0.53 0.49 0.46 0.44 0.41 0.39 0.40 0.43 0.49 0.50 0.47 0.53 0.61 0.73 0.78 0.82 0.75 0.72 0.69 0.67 0.64 0.73 0.78 0.87 0.91 0.83 0.78 0.72 0.68 0.64 0.65 0.62 0.54 0.51 0.48 0.41 0.41 0.43
0.40 0.37 0.39 0.40 0.40 0.40 0.36 0.35 0.36 0.38 0.37 0.36 0.38 0.46 0.57 0.59 0.58 0.67 0.67 0.60 0.68 0.69 0.67 0.66 0.65 0.63 0.58 0.59 0.70 0.78 0.85 0.84 0.80 0.71 0.64 0.60 0.56 0.54 0.51 0.47 0.41 0.38 0.40 0.40
0.23 0.22 0.25 0.24 0.25 0.29 0.33 0.33 0.32 0.33 0.33 0.34 0.33 0.42 0.63 0.75 0.70 0.65 0.64 0.62 0.58 0.53 0.50 0.51 0.46 0.45 0.48 0.50 0.60 0.68 0.76 0.79 0.79 0.72 0.65 0.60 0.52 0.50 0.53 0.52 0.45 0.40 0.39 0.36
0.18 0.17 0.19 0.22 0.27 0.34 0.39 0.39 0.35 0.34 0.38 0.39 0.36 0.44 0.60 0.74 0.83 0.75 0.62 0.55 0.50 0.45 0.44 0.42 0.38 0.41 0.43 0.47 0.56 0.67 0.75 0.76 0.76 0.71 0.62 0.56 0.50 0.49 0.52 0.51 0.45 0.40 0.36 0.33
0.22 0.22 0.25 0.27 0.32 0.42 0.47 0.49 0.51 0.50 0.55 0.60 0.59 0.62 0.69 0.70 0.73 0.71 0.62 0.52 0.46 0.46 0.46 0.45 0.41 0.41 0.44 0.52 0.57 0.63 0.70 0.71 0.69 0.65 0.54 0.51 0.46 0.47 0.51 0.49 0.43 0.40 0.35 0.29
0.27 0.29 0.32 0.34 0.39 0.47 0.52 0.57 0.65 0.70 0.78 0.87 0.92 0.86 0.85 0.83 0.77 0.68 0.58 0.48 0.43 0.43 0.45 0.44 0.41 0.39 0.43 0.52 0.59 0.64 0.65 0.65 0.59 0.54 0.53 0.51 0.48 0.49 0.52 0.48 0.44 0.39 0.32 0.29